LiveATC.Net - Listen to live air traffic control over the Internet!

ICAO: KPTK  IATA: PTK   Airport: Oakland County International Airport
City: Pontiac   State/Province: Michigan
Country: United States   Continent: North America
KPTK METAR Weather: KPTK 211353Z 34011KT 10SM BKN011 BKN048 BKN150 08/05 A3000 RMK AO2 SLP163 T00780050
KPTK Flight Activity (FlightAware)
KPTK Airport Info   (AirNav) (iFlightPlanner)
KPTK VFR Sectional Chart   (iFlightPlanner) 
KPTK IFR Low Chart   (iFlightPlanner) 
KPTK Tower
Feed Status: UP   Listeners: 0
Listen right in your browser - requires Flash (in browser, requires Flash)
Click here to listen with your own player (launches your MP3 player)
KPTK Tower Audio Archives
Pontiac Tower120.500
Pontiac Tower123.700


Unauthorized use prohibited. See Terms of Service

Find LiveATC Audio Streams

Airport/ARTCC Code

(e.g., 124.400, 128.75)
Site-wide search

Browse LiveATC Feeds
LiveATC Coverage Map
Top 50 LiveATC Feeds
Bad Weather Areas

Offer a LiveATC Feed
Press Inquiries

LiveATC on iPhone
LiveATC on Android

Windows Phone
Windows 8/10

LiveATC Mobile
(Mobile browser)

ATC Audio Archives
Interesting Recordings

LiveATC Forums

Home Page
Make a Donation
LiveATC Store

Terms of Use
Privacy Policy

Canadian Air Freqs


FAA Airport Status
Nat'l Airspace Status
Arrival Demand Charts

Server Software By: